Regional Weather Roundup
Issued by NWS

Home | Current Version | Previous Version | Graphics & Text | Print | Product List | Glossary On
Versions: 1 2 3 4 5 6 7 8 9 10 11 12 13 14 15 16 17 18 19 20 21 22 23 24 25 26 27 28 29 30 31 32 33 34 35 36 37 38 39 40 41 42 43 44 45 46 47 48 49 50
545
ASUS43 KFSD 091310
RWRSD

WEATHER ROUNDUP FOR SOUTH DAKOTA
NATIONAL WEATHER SERVICE SIOUX FALLS SD
700 AM CST TUE FEB 09 2016

NOTE: "FAIR" INDICATES FEW OR NO CLOUDS BELOW 12,000 FEET WITH NO
SIGNIFICANT WEATHER AND/OR OBSTRUCTIONS TO VISIBILITY.


SDZ001>005-009-010-012>017-091400-
NORTHWEST AND NORTH CENTRAL SOUTH DAKOTA

CITY           SKY/WX    TMP DP  RH WIND       PRES   REMARKS
BUFFALO          N/A     28  18  66 NW8       30.12S WCI  20
FAITH            N/A     26  16  65 SE6       30.22S WCI  19
MOBRIDGE       CLOUDY    23  13  65 W6        30.23S WCI  16
$$

SDZ012>016-024>037-041>051-057-063-072>074-091400-
SOUTHWEST AND SOUTH CENTRAL SOUTH DAKOTA

CITY           SKY/WX    TMP DP  RH WIND       PRES   REMARKS
RAPID CTY ARPT PTCLDY    24  15  68 CALM      30.21F
PIERRE         CLOUDY    23   9  55 N7        30.29R WCI  15
CUSTER         CLEAR     35  22  58 NW9G22    30.17S WCI  28
ELLSWORTH AFB  PTCLDY    23  16  75 SW5       30.18F WCI  17
PHILIP         CLOUDY    29  19  66 NE6       30.25R WCI  23
PINE RIDGE     CLOUDY    22  17  81 CALM      30.23S
SPEARFISH      FAIR      39  27  60 W16G22    30.22F
WINNER         CLOUDY    23  12  62 NW6       30.28R WCI  16
$$

SDZ004>011-016>023-039-040-091400-
NORTHEAST SOUTH DAKOTA

CITY           SKY/WX    TMP DP  RH WIND       PRES   REMARKS
ABERDEEN       CLOUDY    13   5  70 N5        30.28R WCI   5
WATERTOWN      CLEAR      3  -3  76 N10       30.20R WCI -12
BROOKINGS      CLEAR      3  -2  79 N12       30.19R WCI -13
SISSETON         N/A      8   3  80 N14       30.25R WCI  -8
$$

SDZ017-020-022-023-036>040-048>070-091400-
SOUTHEAST SOUTH DAKOTA

CITY           SKY/WX    TMP DP  RH WIND       PRES   REMARKS
SIOUX FALLS    PTCLDY     6  -1  73 N16       30.21R WCI -12
HURON          CLOUDY    13   7  77 NW13      30.28R WCI  -2
CHAMBERLAIN    CLOUDY    20  10  64 N8        30.29R WCI  10
MITCHELL       PTCLDY    14   8  77 NW15      30.30R WCI  -1
YANKTON        CLEAR     14   5  67 NW18      30.25R WCI  -3
$$

ABBREVIATIONS USED IN REMARKS
   TC - TEMPERATURE IN CELSIUS
  WCI - WIND CHILL INDEX
   HX - HEAT INDEX
  VSB - VISIBILITY





USA.gov is the U.S. government's official web portal to all federal, state and local government web resources and services.